Regional Weather Roundup
Issued by NWS

Home | Current Version | Previous Version | Text Only | Print | Product List | Glossary Off
Versions: 1 2 3 4 5 6 7 8 9 10 11 12 13 14 15 16 17 18 19 20 21 22 23 24 25 26 27 28 29 30 31 32 33 34 35 36 37 38 39 40 41 42 43 44 45 46 47 48 49 50

000
ASUS45 KBOU 021807
RWRCO

WEATHER ROUNDUP FOR COLORADO
NATIONAL WEATHER SERVICE DENVER/BOULDER CO
1200 PM MDT WED SEP 02 2015

NOTE: "FAIR" INDICATES FEW OR NO CLOUDS BELOW 12000 FEET WITH NO
SIGNIFICANT WEATHER AND/OR OBSTRUCTIONS TO VISIBILITY.

COZ001>005-013-030-031-021900-
...NORTHWEST COLORADO...

CITY           SKY/WX    TMP DP  RH WIND       PRES   REMARKS
CRAIG          SUNNY     78  45  30 NW3       30.20F
HAYDEN         NOT AVBL
MEEKER         MOSUNNY   76  48  37 SW5       30.22F
MOUNT WERNER   NOT AVBL
STEAMBOAT SPGS SUNNY     73  41  32 W3        30.26F
WALDEN         SUNNY     72  37  28 SW9G17    30.33F
$$

COZ006>008-011-021900-
...WEST CENTRAL VALLEYS...

CITY           SKY/WX    TMP DP  RH WIND       PRES   REMARKS
GRAND JUNCTION MOSUNNY   77  48  35 VRB3      30.14F
MONTROSE       MOSUNNY   78  51  38 VRB6      30.21F
EAGLE          SUNNY     70  46  43 CALM      30.29F
RIFLE          SUNNY     72  51  47 CALM      30.20F
DELTA          MOSUNNY   83  46  27 E3        30.17F
NUCLA          MOSUNNY   79  43  27 W8        30.25F
$$

COZ017>023-064>068-021900-
...SOUTHWEST COLORADO...

CITY           SKY/WX    TMP DP  RH WIND       PRES   REMARKS
DURANGO        SUNNY     77  44  30 VRB6      30.29F
CORTEZ         MOSUNNY   80  48  32 SW7       30.22F
PAGOSA SPRINGS SUNNY     74  38  28 S9        30.36F
TELLURIDE      MOSUNNY   68  38  34 CALM      30.45F
WOLF CREEK PAS NOT AVBL
$$

COZ009-010-012-014-032>034-037-058>063-021900-
...CENTRAL COLORADO...

CITY           SKY/WX    TMP DP  RH WIND       PRES   REMARKS
ASPEN          MOSUNNY   71  48  43 NW6       30.33F
BUENA VISTA    MOSUNNY   74  36  24 W9G21     30.34F
COPPER MTN     LGT RAIN  54  37  54 W18       30.64S
BERTHOUD PASS  PTSUNNY   46  34  61 N9        30.67S
COTTONWOOD PAS MOSUNNY   68  37  32 W5        30.49F
GUNNISON       MOSUNNY   64  45  48 CALM      30.40F
KREMMLING      SUNNY     70  46  43 CALM      30.33F
LEADVILLE      MOSUNNY   61  38  42 VRB7      30.47F
MONARCH PASS   MOSUNNY   52  39  62 W20G26    30.74F
SALIDA         MOSUNNY   73  44  34 N6        30.38F
SUNLIGHT       PTSUNNY   61  45  55 CALM      30.58S
WILKERSON PASS MOSUNNY   55  36  47 W5        30.61F
$$

COZ069>075-021900-
...SAN LUIS VALLEY/SANGRE DE CRISTO MOUNTAINS...

CITY           SKY/WX    TMP DP  RH WIND       PRES   REMARKS
ALAMOSA        SUNNY     74  44  34 VRB3      30.33F
LA VETA PASS   MOSUNNY   68  37  32 S6        30.51F
SAGUACHE       MOSUNNY   70  46  43 S8        30.38F
$$

COZ035-036-038>040-021900-
...NORTHERN COLORADO FRONT RANGE...

CITY           SKY/WX    TMP DP  RH WIND       PRES   REMARKS
DENVER INTL AP PTSUNNY   86  37  17 W6        30.11F
DMNS CITY PARK   N/A     86  40  19 S7        30.10F
AURORA         PTSUNNY   84  37  18 NW7       30.14F
FRONT RANGE AP NOT AVBL
ERIE MUNI ARPT MOSUNNY   87  37  17 NE5       30.08F
BOULDER MUN AP MOSUNNY   88  37  16 SE6       30.08F
CENTENNIAL     PTSUNNY   82  39  21 SE5       30.15F
BROOMFIELD     PTSUNNY   84  41  21 S5        30.13F
FORT COLLINS   SUNNY     86  46  25 S8        30.07F
LONGMONT       SUNNY     91  41  17 E5        30.08F
$$

COZ041-046-047-076>085-087-088-021900-
...PIKES PEAK/PALMER DIVIDE AND SOUTHERN FOOTHILLS...

CITY           SKY/WX    TMP DP  RH WIND       PRES   REMARKS
COLO. SPRINGS  MOSUNNY   84  38  19 NW5       30.18F
A. F. ACADEMY  MOSUNNY   79  37  22 N3        30.19F
ELLICOTT       MOSUNNY  N/A N/A N/A N5        30.17F
FALCON         MOSUNNY   80  35  19 MISG      30.24F
FORT CARSON    PTSUNNY   84  42  22 W2        30.15F
LIMON          PTSUNNY   84  41  21 N8        30.11F
MONUMENT HILL  SUNNY     77  34  20 N5        30.25F
TRINIDAD       SUNNY     86  43  22 VRB5      30.15F
$$

COZ042>045-048>051-090-091-021900-
...NORTHEAST COLORADO...

CITY           SKY/WX    TMP DP  RH WIND       PRES   REMARKS
GREELEY ARPT   SUNNY     88  46  23 S8        30.06F
AKRON          MOSUNNY   86  39  19 NW8       30.05F
BURLINGTON     MOSUNNY   89  47  23 CALM      30.02F
WRAY           CLOUDY    93  44  18 CALM      29.96F
STERLING       NOT AVBL
HOLYOKE        MOSUNNY   91  46  21 SE5       29.97F
FORT MORGAN    MOSUNNY   89  39  17 CALM      30.05F
$$

COZ086-089-092>099-021900-
...SOUTHEAST COLORADO...

CITY           SKY/WX    TMP DP  RH WIND       PRES   REMARKS
PUEBLO         SUNNY     92  42  17 W17G26    30.06F
LA JUNTA       SUNNY     94  45  18 W13       30.02F
LAMAR          SUNNY     91  51  25 W9        29.98F
SPRINGFIELD      N/A     93  46  19 NW8       30.03F
$$



USA.gov is the U.S. government's official web portal to all federal, state and local government web resources and services.